NOAA 16 DEB, 41290

Orbit data source: Space-Track

NOAA 16 DEB, 41290 is space debris in SSO originally from a launch on Thu, 21 Sep 2000 UTC launched from the Air Force Western Test Range (AFWTR). Debris objects in space refer to the collection of defunct objects orbiting the Earth. Examples of debris include non-operational satellites, rocket bodies, and fragments generated from explosions, collisions, or faulty payload assembly.

Loading next visibility...
Identifier
41290, 2000-055GS
Orbit
SSO
Country
Flag of USUS
Related business
Manufacturer
Unknown
Mission
Spacecraft
Bus & Motor
Unknown
Mass
Unknown
Launch date (UTC)
2000-09-21 (25 years ago)
Launch vehicle
Unknown
Launch site
Air Force Western Test Range (AFWTR)
Object type
Payload
Rocket body
Debris
Shape & HBR
Unknown shape, 0.1 m
Radar Cross Section
Small (<0.1 m²)

Expand to show TLE details & history
Last TLE update: 2 days ago

TLE from 2 days ago
0 NOAA 16 DEB
1 41290U 00055GS  26036.59162616  .00037547  00000-0  64678-2 0  9998
2 41290  99.0037 271.0941 0012223 137.4768 222.7383 14.68346675527401
Epoch: 2026-02-05T14:11Z
TLE epoch observation values (Epoch: 2026-02-05T14:11:56.500Z)
Latitude
-0°
Longitude
-77.63297°
Altitude
675.652 km
Speed
7.516 km/s
True Right ascension
18h 04m 22s
True Declination
0° 00' 00"
Sunlit
Object was in daylight at epoch
Visualization orbit readout
Latitude
Unknown
Longitude
Unknown
Altitude
Unknown
Speed
Unknown
Apparent Right ascension
Unknown
Apparent Declination
Unknown
Sunlit
N/A
Visualization observer readout
Local Sidereal Time
04:39:00
Azimuth
Unknown
Elevation
Unknown
Doppler factor
Unknown
Orbital elements
Apogee altitude
672.067 km
Perigee altitude
654.853 km
Semi-major axis
7,041.597 km
Eccentricity
0.00122
Inclination
99.0037°
RAAN
271.0941°
Arg. of periapsis
137.4768°
True anomaly
222.64335°
Mean anomaly
222.7383°
Eccentric anomaly
222.69081°
Mean motion
3.67313 °/min
Orbital period
98.01 mins
BSTAR
0.0064678
Loading maneuver chart data...
Computing Atmospheric mass density...
Loading historical data...
Loading historical data...
Loading historical data...
Loading historical data...
Loading historical data...
Loading historical data...
Loading historical data...

Documentation

Showing up to 5 results
|